| time (UTC) | temp F | wind direction | speed MPH | gust MPH | rain 1hr in | rain 24hr in | rain mn in | humidity % | barometer mb |
| 20260906012832 | 87 | 135 | 5.0 | 11.0 | 0.00 | 0.00 | 0.00 | 39 | 1012.7 |
| 20260906012327 | 88 | 155 | 6.0 | 9.0 | 0.00 | 0.00 | 0.00 | 38 | 1012.3 |
| 20260906011827 | 88 | 139 | 7.0 | 13.0 | 0.00 | 0.00 | 0.00 | 38 | 1012.6 |
| 20260906011322 | 89 | 129 | 9.0 | 15.0 | 0.00 | 0.00 | 0.00 | 38 | 1012.7 |
| 20260906010818 | 89 | 135 | 9.0 | 14.0 | 0.00 | 0.00 | 0.00 | 37 | 1012.7 |
| 20260906010314 | 89 | 132 | 10.0 | 16.0 | 0.00 | 0.00 | 0.00 | 37 | 1012.5 |
| 20260906005809 | 90 | 145 | 7.0 | 13.0 | 0.00 | 0.00 | 0.00 | 36 | 1012.6 |
| 20260906005308 | 90 | 142 | 8.0 | 11.0 | 0.00 | 0.00 | 0.00 | 36 | 1012.6 |
| 20260906004806 | 90 | 143 | 8.0 | 10.0 | 0.00 | 0.00 | 0.00 | 36 | 1012.9 |
| 20260906004301 | 91 | 134 | 11.0 | 14.0 | 0.00 | 0.00 | 0.00 | 35 | 1012.5 |
| 20260906003756 | 91 | 138 | 13.0 | 14.0 | 0.00 | 0.00 | 0.00 | 34 | 1012.6 |
| 20260906003252 | 91 | 133 | 7.0 | 12.0 | 0.00 | 0.00 | 0.00 | 35 | 1012.5 |
| 20260906002746 | 91 | 137 | 9.0 | 11.0 | 0.00 | 0.00 | 0.00 | 34 | 1012.5 |
| 20260906002241 | 92 | 133 | 9.0 | 13.0 | 0.00 | 0.00 | 0.00 | 34 | 1012.5 |
| 20260906001736 | 92 | 132 | 9.0 | 13.0 | 0.00 | 0.00 | 0.00 | 34 | 1012.5 |
| 20260906001231 | 92 | 139 | 10.0 | 16.0 | 0.00 | 0.00 | 0.00 | 33 | 1012.2 |
| 20260906000727 | 92 | 133 | 11.0 | 13.0 | 0.00 | 0.00 | 0.00 | 33 | 1012.5 |
| 20260906000227 | 92 | 127 | 12.0 | 15.0 | 0.00 | 0.00 | 0.00 | 33 | 1012.1 |
| 20260905235721 | 92 | 132 | 12.0 | 15.0 | 0.00 | 0.00 | 0.00 | 33 | 1011.9 |
| 20260905235216 | 93 | 130 | 12.0 | 19.0 | 0.00 | 0.00 | 0.00 | 33 | 1012.0 |
| 20260905234711 | 93 | 137 | 12.0 | 17.0 | 0.00 | 0.00 | 0.00 | 33 | 1011.8 |
| 20260905234207 | 93 | 133 | 15.0 | 18.0 | 0.00 | 0.00 | 0.00 | 33 | 1011.9 |
| 20260905233702 | 93 | 139 | 9.0 | 21.0 | 0.00 | 0.00 | 0.00 | 33 | 1011.7 |
| 20260905233201 | 94 | 154 | 8.0 | 17.0 | 0.00 | 0.00 | 0.00 | 32 | 1011.7 |
| 20260905232656 | 94 | 136 | 7.0 | 9.0 | 0.00 | 0.00 | 0.00 | 32 | 1011.5 |
| 20260905232152 | 95 | 152 | 5.0 | 13.0 | 0.00 | 0.00 | 0.00 | 32 | 1011.3 |
| 20260905231648 | 95 | 133 | 7.0 | 13.0 | 0.00 | 0.00 | 0.00 | 29 | 1011.3 |
| 20260905231143 | 96 | 166 | 6.0 | 11.0 | 0.00 | 0.00 | 0.00 | 29 | 1011.3 |
| 20260905230639 | 96 | 214 | 5.0 | 6.0 | 0.00 | 0.00 | 0.00 | 28 | 1011.3 |
| 20260905230137 | 96 | 220 | 5.0 | 11.0 | 0.00 | 0.00 | 0.00 | 28 | 1011.7 |
| 20260905225636 | 97 | 232 | 4.0 | 10.0 | 0.00 | 0.00 | 0.00 | 29 | 1011.3 |
| 20260905225131 | 96 | 151 | 5.0 | 11.0 | 0.00 | 0.00 | 0.00 | 29 | 1011.6 |
| 20260905224630 | 97 | 180 | 7.0 | 11.0 | 0.00 | 0.00 | 0.00 | 29 | 1011.7 |
| 20260905224125 | 97 | 141 | 9.0 | 13.0 | 0.00 | 0.00 | 0.00 | 28 | 1011.6 |
| 20260905223622 | 97 | 173 | 3.0 | 9.0 | 0.00 | 0.00 | 0.00 | 28 | 1011.2 |
| 20260905223118 | 97 | 149 | 6.0 | 9.0 | 0.00 | 0.00 | 0.00 | 27 | 1011.7 |
| 20260905222613 | 97 | 158 | 6.0 | 12.0 | 0.00 | 0.00 | 0.00 | 28 | 1011.5 |
| 20260905222108 | 97 | 207 | 11.0 | 16.0 | 0.00 | 0.00 | 0.00 | 28 | 1011.6 |
| 20260905221604 | 98 | 153 | 7.0 | 13.0 | 0.00 | 0.00 | 0.00 | 29 | 1011.2 |
| 20260905221100 | 97 | 199 | 12.0 | 15.0 | 0.00 | 0.00 | 0.00 | 28 | 1011.7 |
| 20260905220555 | 97 | 196 | 8.0 | 12.0 | 0.00 | 0.00 | 0.00 | 28 | 1011.7 |
| 20260905220052 | 97 | 202 | 12.0 | 13.0 | 0.00 | 0.00 | 0.00 | 28 | 1011.6 |
| 20260905215551 | 97 | 193 | 5.0 | 8.0 | 0.00 | 0.00 | 0.00 | 27 | 1011.7 |
| 20260905215047 | 97 | 204 | 7.0 | 13.0 | 0.00 | 0.00 | 0.00 | 28 | 1011.8 |
| 20260905214542 | 98 | 219 | 11.0 | 14.0 | 0.00 | 0.00 | 0.00 | 28 | 1011.8 |
| 20260905214037 | 97 | 198 | 6.0 | 17.0 | 0.00 | 0.00 | 0.00 | 28 | 1011.8 |
| 20260905213533 | 97 | 160 | 5.0 | 13.0 | 0.00 | 0.00 | 0.00 | 28 | 1012.2 |
| 20260905213028 | 97 | 233 | 9.0 | 15.0 | 0.00 | 0.00 | 0.00 | 29 | 1012.0 |
| 20260905212523 | 97 | 191 | 6.0 | 13.0 | 0.00 | 0.00 | 0.00 | 29 | 1012.1 |
| 20260905212022 | 97 | 247 | 4.0 | 12.0 | 0.00 | 0.00 | 0.00 | 30 | 1012.1 |
| 20260905211518 | 97 | 196 | 10.0 | 13.0 | 0.00 | 0.00 | 0.00 | 30 | 1012.2 |
| 20260905211014 | 97 | 148 | 8.0 | 13.0 | 0.00 | 0.00 | 0.00 | 30 | 1012.2 |
| 20260905210509 | 97 | 183 | 6.0 | 15.0 | 0.00 | 0.00 | 0.00 | 29 | 1012.5 |
| 20260905210008 | 97 | 147 | 7.0 | 9.0 | 0.00 | 0.00 | 0.00 | 29 | 1012.5 |
| 20260905205503 | 98 | 220 | 8.0 | 13.0 | 0.00 | 0.00 | 0.00 | 29 | 1012.6 |
| 20260905205002 | 98 | 237 | 10.0 | 15.0 | 0.00 | 0.00 | 0.00 | 29 | 1012.6 |
| 20260905204457 | 98 | 208 | 8.0 | 14.0 | 0.00 | 0.00 | 0.00 | 29 | 1012.6 |
| 20260905203956 | 98 | 222 | 3.0 | 11.0 | 0.00 | 0.00 | 0.00 | 30 | 1012.7 |
| 20260905203452 | 98 | 196 | 7.0 | 10.0 | 0.00 | 0.00 | 0.00 | 30 | 1012.9 |
| 20260905202948 | 97 | 181 | 3.0 | 14.0 | 0.00 | 0.00 | 0.00 | 31 | 1013.1 |
| 20260905202442 | 97 | 158 | 12.0 | 13.0 | 0.00 | 0.00 | 0.00 | 30 | 1013.0 |
| 20260905201937 | 97 | 183 | 2.0 | 8.0 | 0.00 | 0.00 | 0.00 | 30 | 1013.0 |
| 20260905201432 | 96 | 220 | 17.0 | 19.0 | 0.00 | 0.00 | 0.00 | 30 | 1013.1 |
| 20260905200927 | 97 | 189 | 11.0 | 15.0 | 0.00 | 0.00 | 0.00 | 30 | 1013.2 |
| 20260905200423 | 96 | 192 | 9.0 | 16.0 | 0.00 | 0.00 | 0.00 | 30 | 1013.2 |
| 20260905195921 | 97 | 164 | 6.0 | 11.0 | 0.00 | 0.00 | 0.00 | 30 | 1013.5 |
| 20260905195417 | 96 | 231 | 3.0 | 10.0 | 0.00 | 0.00 | 0.00 | 32 | 1013.3 |
| 20260905194912 | 96 | 218 | 9.0 | 12.0 | 0.00 | 0.00 | 0.00 | 31 | 1013.5 |
| 20260905194411 | 96 | 168 | 6.0 | 12.0 | 0.00 | 0.00 | 0.00 | 31 | 1013.3 |
| 20260905193906 | 96 | 177 | 8.0 | 14.0 | 0.00 | 0.00 | 0.00 | 32 | 1013.5 |
| 20260905193401 | 95 | 201 | 9.0 | 18.0 | 0.00 | 0.00 | 0.00 | 32 | 1013.5 |
| 20260905192856 | 95 | 156 | 4.0 | 12.0 | 0.00 | 0.00 | 0.00 | 34 | 1013.5 |
| 20260905192351 | 96 | 163 | 11.0 | 17.0 | 0.00 | 0.00 | 0.00 | 32 | 1013.9 |
| 20260905191851 | 96 | 170 | 6.0 | 15.0 | 0.00 | 0.00 | 0.00 | 32 | 1013.9 |
| 20260905191350 | 95 | 157 | 7.0 | 11.0 | 0.00 | 0.00 | 0.00 | 33 | 1013.9 |
| 20260905190849 | 95 | 154 | 10.0 | 13.0 | 0.00 | 0.00 | 0.00 | 33 | 1013.8 |
| 20260905190343 | 95 | 165 | 5.0 | 12.0 | 0.00 | 0.00 | 0.00 | 33 | 1013.8 |
| 20260905185842 | 94 | 231 | 4.0 | 14.0 | 0.00 | 0.00 | 0.00 | 34 | 1013.8 |
| 20260905185337 | 95 | 215 | 14.0 | 17.0 | 0.00 | 0.00 | 0.00 | 31 | 1013.9 |
| 20260905184836 | 94 | 226 | 9.0 | 15.0 | 0.00 | 0.00 | 0.00 | 35 | 1014.0 |
| 20260905184335 | 94 | 220 | 8.0 | 20.0 | 0.00 | 0.00 | 0.00 | 34 | 1014.1 |
| 20260905183834 | 94 | 200 | 6.0 | 15.0 | 0.00 | 0.00 | 0.00 | 35 | 1014.2 |
| 20260905183330 | 94 | 227 | 8.0 | 13.0 | 0.00 | 0.00 | 0.00 | 35 | 1014.2 |
| 20260905182829 | 94 | 187 | 5.0 | 12.0 | 0.00 | 0.00 | 0.00 | 36 | 1014.2 |
| 20260905182324 | 93 | 180 | 5.0 | 14.0 | 0.00 | 0.00 | 0.00 | 36 | 1014.3 |
| 20260905181820 | 93 | 184 | 4.0 | 12.0 | 0.00 | 0.00 | 0.00 | 37 | 1014.5 |
| 20260905181319 | 93 | 153 | 14.0 | 15.0 | 0.00 | 0.00 | 0.00 | 36 | 1014.2 |
| 20260905180818 | 93 | 182 | 3.0 | 12.0 | 0.00 | 0.00 | 0.00 | 37 | 1014.7 |
| 20260905180313 | 92 | 203 | 9.0 | 14.0 | 0.00 | 0.00 | 0.00 | 37 | 1014.6 |
| 20260905175808 | 92 | 216 | 5.0 | 15.0 | 0.00 | 0.00 | 0.00 | 39 | 1014.6 |
| 20260905175306 | 92 | 230 | 8.0 | 15.0 | 0.00 | 0.00 | 0.00 | 39 | 1014.7 |
| 20260905174758 | 92 | 160 | 9.0 | 13.0 | 0.00 | 0.00 | 0.00 | 39 | 1014.8 |
| 20260905174254 | 91 | 161 | 5.0 | 11.0 | 0.00 | 0.00 | 0.00 | 39 | 1014.7 |
| 20260905173749 | 91 | 224 | 15.0 | 17.0 | 0.00 | 0.00 | 0.00 | 39 | 1015.1 |
| 20260905173245 | 91 | 218 | 13.0 | 16.0 | 0.00 | 0.00 | 0.00 | 39 | 1014.8 |
| 20260905172744 | 91 | 196 | 6.0 | 14.0 | 0.00 | 0.00 | 0.00 | 41 | 1015.0 |
| 20260905172243 | 90 | 220 | 9.0 | 16.0 | 0.00 | 0.00 | 0.00 | 42 | 1015.0 |
| 20260905171740 | 89 | 180 | 8.0 | 15.0 | 0.00 | 0.00 | 0.00 | 43 | 1014.7 |
| 20260905171236 | 89 | 202 | 7.0 | 15.0 | 0.00 | 0.00 | 0.00 | 42 | 1015.0 |
| 20260905170732 | 89 | 177 | 5.0 | 15.0 | 0.00 | 0.00 | 0.00 | 44 | 1014.9 |
| 20260905170228 | 89 | 174 | 6.0 | 15.0 | 0.00 | 0.00 | 0.00 | 46 | 1015.0 |
| 20260905165727 | 88 | 170 | 9.0 | 12.0 | 0.00 | 0.00 | 0.00 | 45 | 1015.1 |
| 20260905165217 | 88 | 179 | 8.0 | 12.0 | 0.00 | 0.00 | 0.00 | 46 | 1015.1 |
| 20260905164716 | 87 | 210 | 2.0 | 12.0 | 0.00 | 0.00 | 0.00 | 47 | 1014.9 |
| 20260905164211 | 87 | 175 | 11.0 | 13.0 | 0.00 | 0.00 | 0.00 | 48 | 1014.7 |
| 20260905163707 | 86 | 209 | 10.0 | 13.0 | 0.00 | 0.00 | 0.00 | 48 | 1015.0 |
| 20260905163203 | 86 | 218 | 6.0 | 14.0 | 0.00 | 0.00 | 0.00 | 49 | 1015.4 |
| 20260905162659 | 85 | 203 | 4.0 | 15.0 | 0.00 | 0.00 | 0.00 | 51 | 1014.9 |
| 20260905162158 | 85 | 218 | 8.0 | 13.0 | 0.00 | 0.00 | 0.00 | 50 | 1015.2 |
| 20260905161653 | 84 | 219 | 10.0 | 14.0 | 0.00 | 0.00 | 0.00 | 50 | 1015.1 |
| 20260905161151 | 84 | 217 | 11.0 | 15.0 | 0.00 | 0.00 | 0.00 | 51 | 1015.2 |
| 20260905160645 | 83 | 205 | 7.0 | 15.0 | 0.00 | 0.00 | 0.00 | 52 | 1015.1 |
| 20260905160144 | 84 | 192 | 10.0 | 17.0 | 0.00 | 0.00 | 0.00 | 52 | 1015.0 |
| 20260905155639 | 83 | 219 | 11.0 | 16.0 | 0.00 | 0.00 | 0.00 | 53 | 1015.1 |
| 20260905155138 | 83 | 230 | 11.0 | 15.0 | 0.00 | 0.00 | 0.00 | 53 | 1015.1 |
| 20260905154638 | 82 | 204 | 5.0 | 17.0 | 0.00 | 0.00 | 0.00 | 54 | 1015.0 |
| 20260905154134 | 82 | 212 | 9.0 | 17.0 | 0.00 | 0.00 | 0.00 | 54 | 1015.1 |
| 20260905153629 | 82 | 200 | 11.0 | 16.0 | 0.00 | 0.00 | 0.00 | 54 | 1015.0 |
| 20260905153125 | 82 | 212 | 11.0 | 15.0 | 0.00 | 0.00 | 0.00 | 54 | 1015.2 |
| 20260905152619 | 81 | 217 | 12.0 | 17.0 | 0.00 | 0.00 | 0.00 | 56 | 1015.2 |
| 20260905152114 | 81 | 207 | 10.0 | 20.0 | 0.00 | 0.00 | 0.00 | 56 | 1015.0 |
| 20260905151609 | 81 | 225 | 13.0 | 14.0 | 0.00 | 0.00 | 0.00 | 57 | 1015.2 |
| 20260905151104 | 80 | 204 | 10.0 | 15.0 | 0.00 | 0.00 | 0.00 | 58 | 1015.1 |
| 20260905150600 | 80 | 203 | 12.0 | 17.0 | 0.00 | 0.00 | 0.00 | 58 | 1014.9 |
| 20260905150057 | 80 | 202 | 14.0 | 15.0 | 0.00 | 0.00 | 0.00 | 58 | 1015.1 |
| 20260905145551 | 79 | 209 | 5.0 | 13.0 | 0.00 | 0.00 | 0.00 | 59 | 1015.2 |
| 20260905145050 | 79 | 182 | 6.0 | 12.0 | 0.00 | 0.00 | 0.00 | 59 | 1015.1 |
| 20260905144545 | 79 | 224 | 3.0 | 11.0 | 0.00 | 0.00 | 0.00 | 59 | 1015.1 |
| 20260905144044 | 79 | 182 | 5.0 | 7.0 | 0.00 | 0.00 | 0.00 | 59 | 1015.1 |
| 20260905143538 | 78 | 189 | 7.0 | 12.0 | 0.00 | 0.00 | 0.00 | 60 | 1015.5 |
| 20260905143033 | 78 | 197 | 4.0 | 11.0 | 0.00 | 0.00 | 0.00 | 61 | 1015.2 |
| 20260905142532 | 78 | 187 | 7.0 | 12.0 | 0.00 | 0.00 | 0.00 | 60 | 1015.1 |
| 20260905142027 | 78 | 225 | 3.0 | 8.0 | 0.00 | 0.00 | 0.00 | 61 | 1015.1 |
| 20260905141521 | 77 | 212 | 7.0 | 10.0 | 0.00 | 0.00 | 0.00 | 62 | 1015.4 |
| 20260905141018 | 78 | 202 | 8.0 | 13.0 | 0.00 | 0.00 | 0.00 | 62 | 1015.0 |
| 20260905140513 | 77 | 179 | 4.0 | 7.0 | 0.00 | 0.00 | 0.00 | 62 | 1015.1 |
| 20260905140011 | 77 | 180 | 3.0 | 10.0 | 0.00 | 0.00 | 0.00 | 63 | 1015.0 |
| 20260905135507 | 76 | 216 | 6.0 | 9.0 | 0.00 | 0.00 | 0.00 | 63 | 1015.4 |
| 20260905135002 | 76 | 203 | 3.0 | 5.0 | 0.00 | 0.00 | 0.00 | 64 | 1015.1 |
| 20260905134502 | 76 | 154 | 6.0 | 9.0 | 0.00 | 0.00 | 0.00 | 64 | 1015.2 |
| 20260905134001 | 76 | 180 | 3.0 | 7.0 | 0.00 | 0.00 | 0.00 | 65 | 1015.4 |
| 20260905133456 | 75 | 144 | 4.0 | 8.0 | 0.00 | 0.00 | 0.00 | 66 | 1015.1 |
| 20260905132950 | 75 | 195 | 3.0 | 5.0 | 0.00 | 0.00 | 0.00 | 67 | 1015.1 |
| 20260905132445 | 74 | 193 | 4.0 | 5.0 | 0.00 | 0.00 | 0.00 | 68 | 1015.1 |
| 20260905131939 | 74 | 101 | 1.0 | 7.0 | 0.00 | 0.00 | 0.00 | 69 | 1015.0 |
| 20260905131436 | 73 | 204 | 3.0 | 5.0 | 0.00 | 0.00 | 0.00 | 70 | 1014.9 |
| 20260905130935 | 72 | 206 | 3.0 | 4.0 | 0.00 | 0.00 | 0.00 | 72 | 1014.9 |
| 20260905130429 | 72 | 282 | 0.0 | 3.0 | 0.00 | 0.00 | 0.00 | 73 | 1014.9 |
| 20260905125924 | 71 | 172 | 3.0 | 4.0 | 0.00 | 0.00 | 0.00 | 74 | 1014.7 |
| 20260905125419 | 71 | 172 | 3.0 | 4.0 | 0.00 | 0.00 | 0.00 | 74 | 1014.9 |
| 20260905124914 | 71 | 136 | 3.0 | 4.0 | 0.00 | 0.00 | 0.00 | 75 | 1014.6 |
| 20260905124411 | 70 | 134 | 3.0 | 5.0 | 0.00 | 0.00 | 0.00 | 76 | 1014.7 |
| 20260905123911 | 69 | 145 | 2.0 | 4.0 | 0.00 | 0.00 | 0.00 | 77 | 1014.9 |
| 20260905123408 | 70 | 144 | 3.0 | 7.0 | 0.00 | 0.00 | 0.00 | 77 | 1014.5 |
| 20260905122903 | 69 | 120 | 5.0 | 8.0 | 0.00 | 0.00 | 0.00 | 78 | 1014.6 |
| 20260905122401 | 69 | 105 | 4.0 | 5.0 | 0.00 | 0.00 | 0.00 | 79 | 1014.6 |
| 20260905121857 | 69 | 57 | 1.0 | 4.0 | 0.00 | 0.00 | 0.00 | 79 | 1014.5 |
| 20260905121353 | 69 | 102 | 4.0 | 4.0 | 0.00 | 0.00 | 0.00 | 78 | 1014.5 |
| 20260905120852 | 70 | 109 | 3.0 | 5.0 | 0.00 | 0.00 | 0.00 | 78 | 1014.3 |
| 20260905120346 | 70 | 115 | 5.0 | 6.0 | 0.00 | 0.00 | 0.00 | 77 | 1014.8 |
| 20260905115842 | 70 | 106 | 3.0 | 4.0 | 0.00 | 0.00 | 0.00 | 76 | 1014.3 |
| 20260905115341 | 71 | 113 | 3.0 | 5.0 | 0.00 | 0.00 | 0.00 | 75 | 1014.3 |
| 20260905114841 | 71 | 124 | 3.0 | 4.0 | 0.00 | 0.00 | 0.00 | 75 | 1014.2 |
| 20260905114340 | 71 | 111 | 2.0 | 6.0 | 0.00 | 0.00 | 0.00 | 74 | 1014.5 |
| 20260905113834 | 71 | 145 | 3.0 | 3.0 | 0.00 | 0.00 | 0.00 | 74 | 1014.5 |
| 20260905113330 | 71 | 111 | 3.0 | 4.0 | 0.00 | 0.00 | 0.00 | 74 | 1014.5 |
| 20260905112825 | 71 | 101 | 3.0 | 6.0 | 0.00 | 0.00 | 0.00 | 74 | 1014.7 |
| 20260905112320 | 71 | 115 | 4.0 | 6.0 | 0.00 | 0.00 | 0.00 | 74 | 1014.3 |
| 20260905111815 | 72 | 103 | 2.0 | 5.0 | 0.00 | 0.00 | 0.00 | 73 | 1014.1 |
| 20260905111309 | 72 | 128 | 4.0 | 6.0 | 0.00 | 0.00 | 0.00 | 72 | 1014.3 |
| 20260905110808 | 72 | 115 | 3.0 | 5.0 | 0.00 | 0.00 | 0.00 | 72 | 1014.2 |
| 20260905110302 | 72 | 109 | 5.0 | 6.0 | 0.00 | 0.00 | 0.00 | 71 | 1014.3 |
| 20260905105758 | 73 | 83 | 2.0 | 6.0 | 0.00 | 0.00 | 0.00 | 70 | 1014.3 |
| 20260905105257 | 73 | 74 | 4.0 | 5.0 | 0.00 | 0.00 | 0.00 | 70 | 1014.3 |
| 20260905104751 | 73 | 66 | 5.0 | 5.0 | 0.00 | 0.00 | 0.00 | 70 | 1014.1 |
| 20260905104248 | 73 | 34 | 3.0 | 4.0 | 0.00 | 0.00 | 0.00 | 69 | 1014.1 |
| 20260905103747 | 74 | 25 | 3.0 | 3.0 | 0.00 | 0.00 | 0.00 | 65 | 1014.0 |
| 20260905103243 | 75 | 243 | 0.0 | 3.0 | 0.00 | 0.00 | 0.00 | 64 | 1014.0 |
| 20260905102739 | 75 | 277 | 2.0 | 3.0 | 0.00 | 0.00 | 0.00 | 63 | 1014.0 |
| 20260905102235 | 75 | 231 | 1.0 | 4.0 | 0.00 | 0.00 | 0.00 | 63 | 1013.8 |
| 20260905101734 | 75 | 239 | 3.0 | 6.0 | 0.00 | 0.00 | 0.00 | 63 | 1014.0 |
| 20260905101233 | 75 | 219 | 4.0 | 6.0 | 0.00 | 0.00 | 0.00 | 62 | 1014.1 |
| 20260905100729 | 76 | 234 | 1.0 | 6.0 | 0.00 | 0.00 | 0.00 | 62 | 1014.0 |
| 20260905100224 | 76 | 237 | 3.0 | 7.0 | 0.00 | 0.00 | 0.00 | 62 | 1014.1 |
| 20260905095724 | 76 | 235 | 4.0 | 6.0 | 0.00 | 0.00 | 0.00 | 62 | 1014.0 |
| 20260905095224 | 76 | 225 | 5.0 | 6.0 | 0.00 | 0.00 | 0.00 | 61 | 1013.9 |
| 20260905094718 | 76 | 242 | 4.0 | 6.0 | 0.00 | 0.00 | 0.00 | 61 | 1014.0 |
| 20260905094213 | 76 | 293 | 2.0 | 4.0 | 0.00 | 0.00 | 0.00 | 61 | 1014.1 |
| 20260905093707 | 76 | 245 | 5.0 | 5.0 | 0.00 | 0.00 | 0.00 | 61 | 1014.2 |
| 20260905093203 | 76 | 231 | 4.0 | 6.0 | 0.00 | 0.00 | 0.00 | 61 | 1014.3 |
| 20260905092658 | 76 | 226 | 3.0 | 5.0 | 0.00 | 0.00 | 0.00 | 61 | 1014.2 |
| 20260905092154 | 76 | 238 | 3.0 | 5.0 | 0.00 | 0.00 | 0.00 | 61 | 1014.0 |
| 20260905091648 | 76 | 227 | 6.0 | 7.0 | 0.00 | 0.00 | 0.00 | 60 | 1014.2 |
| 20260905091147 | 76 | 220 | 4.0 | 7.0 | 0.00 | 0.00 | 0.00 | 60 | 1014.2 |
| 20260905090642 | 76 | 183 | 3.0 | 4.0 | 0.00 | 0.00 | 0.00 | 60 | 1014.0 |
| 20260905090138 | 76 | 207 | 5.0 | 5.0 | 0.00 | 0.00 | 0.00 | 60 | 1014.0 |
| 20260905085636 | 76 | 234 | 4.0 | 7.0 | 0.00 | 0.00 | 0.00 | 60 | 1014.3 |
| 20260905085126 | 77 | 207 | 7.0 | 11.0 | 0.00 | 0.00 | 0.00 | 59 | 1014.3 |
| 20260905084626 | 76 | 208 | 3.0 | 7.0 | 0.00 | 0.00 | 0.00 | 60 | 1014.1 |
| 20260905084121 | 77 | 212 | 7.0 | 8.0 | 0.00 | 0.00 | 0.00 | 60 | 1014.0 |
| 20260905083615 | 77 | 218 | 7.0 | 8.0 | 0.00 | 0.00 | 0.00 | 59 | 1014.2 |
| 20260905083112 | 77 | 211 | 5.0 | 6.0 | 0.00 | 0.00 | 0.00 | 59 | 1014.2 |
| 20260905082607 | 77 | 236 | 4.0 | 6.0 | 0.00 | 0.00 | 0.00 | 59 | 1014.2 |
| 20260905082103 | 77 | 227 | 3.0 | 8.0 | 0.00 | 0.00 | 0.00 | 58 | 1014.0 |
| 20260905081602 | 77 | 214 | 3.0 | 7.0 | 0.00 | 0.00 | 0.00 | 58 | 1014.3 |
| 20260905081056 | 77 | 253 | 4.0 | 8.0 | 0.00 | 0.00 | 0.00 | 58 | 1014.0 |
| 20260905080551 | 77 | 229 | 5.0 | 8.0 | 0.00 | 0.00 | 0.00 | 58 | 1014.3 |
| 20260905080046 | 77 | 192 | 4.0 | 6.0 | 0.00 | 0.00 | 0.00 | 58 | 1014.1 |
| 20260905075544 | 78 | 219 | 4.0 | 9.0 | 0.00 | 0.00 | 0.00 | 57 | 1014.1 |
| 20260905075038 | 78 | 218 | 7.0 | 11.0 | 0.00 | 0.00 | 0.00 | 57 | 1014.2 |
| 20260905074532 | 77 | 224 | 5.0 | 9.0 | 0.00 | 0.00 | 0.00 | 58 | 1014.5 |
| 20260905074028 | 77 | 217 | 5.0 | 6.0 | 0.00 | 0.00 | 0.00 | 58 | 1014.2 |
| 20260905073524 | 77 | 197 | 3.0 | 7.0 | 0.00 | 0.00 | 0.00 | 58 | 1014.3 |
| 20260905073020 | 78 | 211 | 3.0 | 11.0 | 0.00 | 0.00 | 0.00 | 58 | 1014.5 |
| 20260905072519 | 78 | 206 | 6.0 | 8.0 | 0.00 | 0.00 | 0.00 | 58 | 1014.3 |
| 20260905072014 | 78 | 234 | 7.0 | 10.0 | 0.00 | 0.00 | 0.00 | 58 | 1014.5 |
| 20260905071511 | 78 | 220 | 7.0 | 10.0 | 0.00 | 0.00 | 0.00 | 58 | 1014.2 |
| 20260905071011 | 78 | 229 | 9.0 | 12.0 | 0.00 | 0.00 | 0.00 | 58 | 1014.6 |
| 20260905070507 | 78 | 230 | 8.0 | 12.0 | 0.00 | 0.00 | 0.00 | 58 | 1014.3 |
| 20260905070002 | 78 | 232 | 6.0 | 11.0 | 0.00 | 0.00 | 0.00 | 58 | 1014.5 |
| 20260905065500 | 78 | 216 | 9.0 | 12.0 | 0.00 | 0.00 | 0.00 | 57 | 1014.6 |
| 20260905064955 | 78 | 216 | 7.0 | 10.0 | 0.00 | 0.00 | 0.00 | 57 | 1014.6 |
| 20260905064450 | 78 | 225 | 7.0 | 12.0 | 0.00 | 0.00 | 0.00 | 57 | 1014.5 |
| 20260905063945 | 78 | 225 | 10.0 | 12.0 | 0.00 | 0.00 | 0.00 | 56 | 1014.5 |
| 20260905063439 | 78 | 212 | 6.0 | 11.0 | 0.00 | 0.00 | 0.00 | 57 | 1014.1 |
| 20260905062936 | 78 | 225 | 7.0 | 10.0 | 0.00 | 0.00 | 0.00 | 57 | 1014.5 |
| 20260905062435 | 78 | 229 | 6.0 | 8.0 | 0.00 | 0.00 | 0.00 | 56 | 1014.7 |
| 20260905061931 | 78 | 227 | 6.0 | 11.0 | 0.00 | 0.00 | 0.00 | 56 | 1014.6 |
| 20260905061425 | 78 | 229 | 7.0 | 8.0 | 0.00 | 0.00 | 0.00 | 56 | 1014.6 |
| 20260905060924 | 78 | 224 | 8.0 | 11.0 | 0.00 | 0.00 | 0.00 | 56 | 1014.3 |
| 20260905060421 | 78 | 217 | 5.0 | 9.0 | 0.00 | 0.00 | 0.00 | 55 | 1014.0 |
| 20260905055920 | 78 | 217 | 6.0 | 7.0 | 0.00 | 0.00 | 0.00 | 56 | 1014.1 |
| 20260905055415 | 78 | 207 | 5.0 | 9.0 | 0.00 | 0.00 | 0.00 | 56 | 1014.2 |
| 20260905054914 | 78 | 210 | 4.0 | 6.0 | 0.00 | 0.00 | 0.00 | 55 | 1014.2 |
| 20260905054411 | 78 | 242 | 4.0 | 6.0 | 0.00 | 0.00 | 0.00 | 55 | 1014.5 |
| 20260905053910 | 79 | 220 | 5.0 | 6.0 | 0.00 | 0.00 | 0.00 | 55 | 1014.5 |
| 20260905053405 | 79 | 217 | 3.0 | 5.0 | 0.00 | 0.00 | 0.00 | 54 | 1014.1 |
| 20260905052901 | 79 | 178 | 5.0 | 6.0 | 0.00 | 0.00 | 0.00 | 53 | 1014.5 |
| 20260905052400 | 80 | 220 | 6.0 | 7.0 | 0.00 | 0.00 | 0.00 | 53 | 1014.5 |
| 20260905051900 | 80 | 230 | 5.0 | 8.0 | 0.00 | 0.00 | 0.00 | 53 | 1014.3 |
| 20260905051356 | 80 | 236 | 5.0 | 7.0 | 0.00 | 0.00 | 0.00 | 52 | 1014.2 |
| 20260905050853 | 81 | 240 | 4.0 | 9.0 | 0.00 | 0.00 | 0.00 | 51 | 1014.6 |
| 20260905050349 | 81 | 214 | 5.0 | 11.0 | 0.00 | 0.00 | 0.00 | 51 | 1014.3 |
| 20260905045849 | 81 | 220 | 7.0 | 11.0 | 0.00 | 0.00 | 0.00 | 50 | 1014.3 |
| 20260905045344 | 82 | 208 | 2.0 | 11.0 | 0.00 | 0.00 | 0.00 | 49 | 1014.5 |
| 20260905044839 | 82 | 189 | 5.0 | 8.0 | 0.00 | 0.00 | 0.00 | 49 | 1014.6 |
| 20260905044334 | 82 | 186 | 7.0 | 10.0 | 0.00 | 0.00 | 0.00 | 49 | 1014.2 |
| 20260905043833 | 82 | 204 | 5.0 | 12.0 | 0.00 | 0.00 | 0.00 | 48 | 1014.5 |
| 20260905043328 | 82 | 207 | 5.0 | 10.0 | 0.00 | 0.00 | 0.00 | 48 | 1014.5 |
| 20260905042823 | 83 | 195 | 6.0 | 10.0 | 0.00 | 0.00 | 0.00 | 47 | 1014.3 |
| 20260905042323 | 83 | 196 | 6.0 | 13.0 | 0.00 | 0.00 | 0.00 | 47 | 1014.1 |
| 20260905041818 | 83 | 213 | 6.0 | 13.0 | 0.00 | 0.00 | 0.00 | 46 | 1014.2 |
| 20260905041314 | 84 | 217 | 5.0 | 12.0 | 0.00 | 0.00 | 0.00 | 45 | 1014.2 |
| 20260905040809 | 84 | 180 | 7.0 | 14.0 | 0.00 | 0.00 | 0.00 | 45 | 1014.2 |
| 20260905040307 | 84 | 207 | 10.0 | 12.0 | 0.00 | 0.00 | 0.00 | 44 | 1014.2 |
| 20260905035802 | 85 | 190 | 9.0 | 13.0 | 0.00 | 0.00 | 0.00 | 44 | 1014.1 |
| 20260905035258 | 85 | 171 | 7.0 | 11.0 | 0.00 | 0.00 | 0.00 | 43 | 1013.8 |
| 20260905034755 | 85 | 192 | 6.0 | 13.0 | 0.00 | 0.00 | 0.00 | 42 | 1013.9 |
| 20260905034255 | 85 | 210 | 9.0 | 10.0 | 0.00 | 0.00 | 0.00 | 41 | 1014.0 |
| 20260905033753 | 85 | 185 | 9.0 | 13.0 | 0.00 | 0.00 | 0.00 | 41 | 1014.0 |
| 20260905033249 | 85 | 155 | 5.0 | 12.0 | 0.00 | 0.00 | 0.00 | 41 | 1013.9 |
| 20260905032748 | 85 | 159 | 7.0 | 9.0 | 0.00 | 0.00 | 0.00 | 40 | 1013.7 |
| 20260905032244 | 85 | 174 | 5.0 | 13.0 | 0.00 | 0.00 | 0.00 | 40 | 1013.6 |
| 20260905031738 | 86 | 158 | 10.0 | 12.0 | 0.00 | 0.00 | 0.00 | 39 | 1013.5 |
| 20260905031235 | 86 | 154 | 7.0 | 15.0 | 0.00 | 0.00 | 0.00 | 37 | 1013.3 |
| 20260905030730 | 86 | 144 | 5.0 | 13.0 | 0.00 | 0.00 | 0.00 | 37 | 1013.3 |
| 20260905030224 | 86 | 199 | 6.0 | 11.0 | 0.00 | 0.00 | 0.00 | 37 | 1013.2 |
| 20260905025719 | 86 | 167 | 3.0 | 8.0 | 0.00 | 0.00 | 0.00 | 38 | 1013.1 |
| 20260905025215 | 86 | 140 | 6.0 | 9.0 | 0.00 | 0.00 | 0.00 | 37 | 1013.1 |
| 20260905024710 | 87 | 141 | 5.0 | 7.0 | 0.00 | 0.00 | 0.00 | 36 | 1012.9 |
| 20260905024206 | 87 | 139 | 7.0 | 8.0 | 0.00 | 0.00 | 0.00 | 36 | 1012.7 |
| 20260905023700 | 86 | 159 | 2.0 | 7.0 | 0.00 | 0.00 | 0.00 | 36 | 1012.6 |
| 20260905023155 | 86 | 141 | 5.0 | 7.0 | 0.00 | 0.00 | 0.00 | 37 | 1012.7 |
| 20260905022654 | 86 | 176 | 6.0 | 7.0 | 0.00 | 0.00 | 0.00 | 37 | 1012.7 |
| 20260905022150 | 86 | 192 | 3.0 | 5.0 | 0.00 | 0.00 | 0.00 | 38 | 1012.6 |
| 20260905021649 | 86 | 220 | 4.0 | 5.0 | 0.00 | 0.00 | 0.00 | 38 | 1012.3 |
| 20260905021145 | 86 | 198 | 2.0 | 4.0 | 0.00 | 0.00 | 0.00 | 37 | 1012.0 |
| 20260905020640 | 86 | 140 | 2.0 | 6.0 | 0.00 | 0.00 | 0.00 | 37 | 1012.1 |
| 20260905020135 | 86 | 127 | 6.0 | 7.0 | 0.00 | 0.00 | 0.00 | 37 | 1012.2 |
| 20260905015633 | 87 | 134 | 6.0 | 8.0 | 0.00 | 0.00 | 0.00 | 37 | 1012.1 |
| 20260905015133 | 87 | 141 | 5.0 | 9.0 | 0.00 | 0.00 | 0.00 | 37 | 1012.0 |
| 20260905014627 | 87 | 128 | 7.0 | 9.0 | 0.00 | 0.00 | 0.00 | 37 | 1012.2 |
| 20260905014123 | 87 | 136 | 5.0 | 8.0 | 0.00 | 0.00 | 0.00 | 38 | 1011.8 |
| 20260905013619 | 87 | 134 | 7.0 | 10.0 | 0.00 | 0.00 | 0.00 | 38 | 1012.1 |
| 20260905013115 | 87 | 135 | 6.0 | 9.0 | 0.00 | 0.00 | 0.00 | 38 | 1012.0 |